DLA8MF EDDM-EDDF

Flight info

Callsign DLA8MF
Flight time 0h 57m
Altitude 24000
Route GIVMI6Q/08L GIVMI Y101 ERNAS T161 DEBHI
Aircraft E195/M-SDE3GILORVW/S

Departure

Time 2026-05-01 12:40
Airport Munich Airport (EDDM)

Arrival

Time 2026-05-01 13:37
Airport Frankfurt Main Airport (EDDF)
Time Latitude Longitude Altitude Speed Heading
2026-05-01 12:03 48.35048 11.80206 1479 ft 0 kts 353°
2026-05-01 12:14 48.35043 11.80206 1484 ft 11 kts 173°
2026-05-01 12:14 48.35042 11.80204 1484 ft 0 kts 173°
2026-05-01 12:14 48.35048 11.80206 1482 ft 0 kts 353°
2026-05-01 12:30 48.35064 11.80203 1477 ft 6 kts 353°
2026-05-01 12:30 48.35109 11.80158 1475 ft 9 kts 275°
2026-05-01 12:30 48.35096 11.80027 1478 ft 16 kts 260°
2026-05-01 12:31 48.35082 11.79833 1472 ft 20 kts 264°
2026-05-01 12:31 48.35097 11.79656 1483 ft 16 kts 336°
2026-05-01 12:31 48.35219 11.79632 1472 ft 21 kts 352°
2026-05-01 12:31 48.35369 11.79604 1474 ft 22 kts 353°
2026-05-01 12:32 48.35527 11.79577 1474 ft 23 kts 353°
2026-05-01 12:32 48.35838 11.79523 1484 ft 16 kts 351°
2026-05-01 12:32 48.35901 11.79466 1477 ft 6 kts 288°
2026-05-01 12:33 48.35902 11.79449 1476 ft 0 kts 273°
2026-05-01 12:33 48.35902 11.79405 1484 ft 9 kts 272°
2026-05-01 12:33 48.35948 11.79339 1484 ft 11 kts 352°
2026-05-01 12:33 48.36021 11.79327 1484 ft 11 kts 353°
2026-05-01 12:34 48.36092 11.79259 1479 ft 15 kts 277°
2026-05-01 12:34 48.36075 11.79088 1480 ft 20 kts 263°
2026-05-01 12:34 48.36057 11.78866 1481 ft 22 kts 263°
2026-05-01 12:34 48.36039 11.78630 1484 ft 23 kts 264°
2026-05-01 12:35 48.36022 11.78381 1480 ft 24 kts 263°
2026-05-01 12:35 48.36002 11.78122 1479 ft 26 kts 264°
2026-05-01 12:35 48.35981 11.77853 1484 ft 26 kts 265°
2026-05-01 12:35 48.35958 11.77571 1484 ft 27 kts 262°
2026-05-01 12:36 48.35937 11.77284 1484 ft 28 kts 262°
2026-05-01 12:36 48.35947 11.77039 1483 ft 18 kts 315°
2026-05-01 12:36 48.36034 11.76970 1476 ft 14 kts 353°
2026-05-01 12:36 48.36077 11.76965 1484 ft 1 kts 353°
2026-05-01 12:37 48.36098 11.76962 1474 ft 5 kts 353°
2026-05-01 12:37 48.36140 11.76954 1484 ft 4 kts 353°
2026-05-01 12:37 48.36157 11.76951 1477 ft 1 kts 354°
2026-05-01 12:37 48.36169 11.76949 1484 ft 3 kts 354°
2026-05-01 12:38 48.36222 11.76941 1478 ft 12 kts 355°
2026-05-01 12:38 48.36289 11.76954 1484 ft 7 kts 56°
2026-05-01 12:38 48.36293 11.76980 1478 ft 0 kts 85°
2026-05-01 12:39 48.36306 11.77163 1481 ft 49 kts 83°
2026-05-01 12:39 48.36370 11.78044 1484 ft 118 kts 84°
2026-05-01 12:40 48.36486 11.79500 1741 ft 159 kts 82°
2026-05-01 12:40 48.36689 11.81264 2587 ft 181 kts 80°
2026-05-01 12:40 48.36901 11.83177 3439 ft 186 kts 82°
2026-05-01 12:40 48.37080 11.85080 4225 ft 189 kts 79°
2026-05-01 12:41 48.37594 11.86916 4890 ft 197 kts 56°
2026-05-01 12:41 48.38644 11.88320 5583 ft 210 kts 33°
2026-05-01 12:41 48.40062 11.89087 6263 ft 227 kts 12°
2026-05-01 12:41 48.41702 11.89022 6992 ft 244 kts 349°
2026-05-01 12:42 48.43338 11.88273 7695 ft 253 kts 345°
2026-05-01 12:42 48.44926 11.86969 8418 ft 269 kts 317°
2026-05-01 12:42 48.45914 11.84550 9158 ft 279 kts 294°
2026-05-01 12:42 48.46671 11.81843 9913 ft 287 kts 297°
2026-05-01 12:43 48.47668 11.79184 10643 ft 294 kts 306°
2026-05-01 12:43 48.48863 11.76638 11340 ft 300 kts 310°
2026-05-01 12:43 48.50113 11.74110 12049 ft 303 kts 310°
2026-05-01 12:43 48.51363 11.71522 12786 ft 307 kts 309°
2026-05-01 12:44 48.52641 11.68881 13376 ft 313 kts 309°
2026-05-01 12:44 48.53927 11.66218 13862 ft 314 kts 309°
2026-05-01 12:44 48.56480 11.60882 14782 ft 317 kts 309°
2026-05-01 12:45 48.59265 11.55496 15774 ft 338 kts 315°
2026-05-01 12:45 48.60864 11.52796 16306 ft 345 kts 315°
2026-05-01 12:45 48.62466 11.50039 16850 ft 350 kts 314°
2026-05-01 12:46 48.64063 11.47229 17396 ft 354 kts 314°
2026-05-01 12:46 48.65662 11.44399 17888 ft 358 kts 313°
2026-05-01 12:46 48.67288 11.41505 18390 ft 361 kts 313°
2026-05-01 12:46 48.68907 11.38616 18863 ft 364 kts 313°
2026-05-01 12:47 48.70669 11.35864 19275 ft 362 kts 324°
2026-05-01 12:47 48.72705 11.33681 19736 ft 361 kts 330°
2026-05-01 12:47 48.74829 11.31612 20199 ft 362 kts 330°
2026-05-01 12:47 48.76960 11.29523 20680 ft 364 kts 330°
2026-05-01 12:48 48.79088 11.27400 21168 ft 366 kts 329°
2026-05-01 12:48 48.81191 11.25278 21657 ft 368 kts 329°
2026-05-01 12:48 48.83332 11.23115 22149 ft 370 kts 329°
2026-05-01 12:48 48.85388 11.20727 22666 ft 374 kts 322°
2026-05-01 12:49 48.87330 11.18061 23202 ft 376 kts 320°
2026-05-01 12:49 48.89258 11.15329 23755 ft 379 kts 320°
2026-05-01 12:49 48.91190 11.12601 23972 ft 384 kts 320°
2026-05-01 12:49 48.93152 11.09841 23984 ft 381 kts 320°
2026-05-01 12:50 48.95077 11.07139 23989 ft 380 kts 320°
2026-05-01 12:50 48.97026 11.04402 23995 ft 380 kts 320°
2026-05-01 12:50 48.98979 11.01669 23992 ft 380 kts 320°
2026-05-01 12:50 49.00911 10.98970 23995 ft 381 kts 320°
2026-05-01 12:51 49.02872 10.96227 24020 ft 381 kts 320°
2026-05-01 12:51 49.04808 10.93511 24037 ft 381 kts 320°
2026-05-01 12:51 49.08721 10.88014 24010 ft 380 kts 320°
2026-05-01 12:52 49.10645 10.85296 24004 ft 380 kts 320°
2026-05-01 12:52 49.14534 10.79786 24026 ft 380 kts 320°
2026-05-01 12:52 49.16462 10.77053 24028 ft 381 kts 320°
2026-05-01 12:53 49.20365 10.71510 24024 ft 381 kts 319°
2026-05-01 12:53 49.22220 10.68662 24001 ft 382 kts 316°
2026-05-01 12:53 49.24051 10.65700 23996 ft 383 kts 315°
2026-05-01 12:54 49.25883 10.62733 24000 ft 383 kts 316°
2026-05-01 12:54 49.29567 10.56860 24004 ft 384 kts 316°
2026-05-01 12:54 49.31429 10.53918 24005 ft 383 kts 316°
2026-05-01 12:55 49.35130 10.48052 24002 ft 384 kts 317°
2026-05-01 12:55 49.36845 10.44885 24011 ft 387 kts 309°
2026-05-01 12:55 49.38417 10.41505 23987 ft 388 kts 308°
2026-05-01 12:56 49.39949 10.38127 23989 ft 387 kts 307°
2026-05-01 12:56 49.41485 10.34736 23991 ft 387 kts 307°
2026-05-01 12:56 49.43017 10.31372 23986 ft 387 kts 308°
2026-05-01 12:56 49.44576 10.27953 23973 ft 387 kts 308°
2026-05-01 12:57 49.46126 10.24551 23991 ft 387 kts 308°
2026-05-01 12:57 49.49217 10.17764 23972 ft 388 kts 308°
2026-05-01 12:57 49.50748 10.14396 23976 ft 387 kts 307°
2026-05-01 12:58 49.52295 10.10981 23973 ft 387 kts 307°
2026-05-01 12:58 49.53825 10.07597 23973 ft 388 kts 307°
2026-05-01 12:58 49.55372 10.04169 23964 ft 389 kts 307°
2026-05-01 12:59 49.58443 9.97348 23975 ft 389 kts 307°
2026-05-01 12:59 49.59991 9.93906 23863 ft 391 kts 307°
2026-05-01 12:59 49.63050 9.87089 23555 ft 386 kts 307°
2026-05-01 13:00 49.66131 9.80206 22513 ft 387 kts 306°
2026-05-01 13:00 49.67655 9.76797 22048 ft 382 kts 306°
2026-05-01 13:01 49.70635 9.70116 21143 ft 374 kts 306°
2026-05-01 13:01 49.72107 9.66802 20720 ft 372 kts 306°
2026-05-01 13:01 49.75021 9.60223 19902 ft 371 kts 305°
2026-05-01 13:02 49.76484 9.56918 19508 ft 370 kts 305°
2026-05-01 13:07 49.84442 8.81735 11462 ft 304 kts 275°
2026-05-01 13:07 49.84689 8.78473 11148 ft 303 kts 275°
2026-05-01 13:07 49.84927 8.75221 10825 ft 302 kts 274°
2026-05-01 13:08 49.85165 8.72008 10510 ft 301 kts 274°
2026-05-01 13:08 49.85401 8.68792 10194 ft 301 kts 274°
2026-05-01 13:08 49.85637 8.65578 9860 ft 298 kts 274°
2026-05-01 13:08 49.85869 8.62418 9525 ft 296 kts 274°
2026-05-01 13:09 49.86105 8.59246 9183 ft 294 kts 274°
2026-05-01 13:09 49.86344 8.56104 8836 ft 289 kts 275°
2026-05-01 13:09 49.86569 8.53061 8538 ft 285 kts 274°
2026-05-01 13:09 49.86798 8.50030 8274 ft 278 kts 274°
2026-05-01 13:10 49.87027 8.47104 8025 ft 273 kts 274°
2026-05-01 13:10 49.87235 8.44203 7781 ft 269 kts 274°
2026-05-01 13:10 49.87439 8.41316 7550 ft 267 kts 273°
2026-05-01 13:10 49.87652 8.38469 7318 ft 262 kts 274°
2026-05-01 13:11 49.87859 8.35722 7089 ft 257 kts 274°
2026-05-01 13:11 49.88065 8.32977 6876 ft 253 kts 273°
2026-05-01 13:11 49.88098 8.30272 6648 ft 247 kts 261°
2026-05-01 13:11 49.87726 8.27737 6424 ft 241 kts 248°
2026-05-01 13:12 49.87129 8.25298 6217 ft 240 kts 245°
2026-05-01 13:12 49.86507 8.22881 6015 ft 241 kts 244°
2026-05-01 13:12 49.85888 8.20505 5807 ft 241 kts 244°
2026-05-01 13:12 49.85277 8.18093 5597 ft 239 kts 248°
2026-05-01 13:13 49.85069 8.15528 5343 ft 243 kts 276°
2026-05-01 13:13 49.85733 8.13122 5064 ft 248 kts 308°
2026-05-01 13:13 49.86946 8.11261 4856 ft 246 kts 315°
2026-05-01 13:13 49.88236 8.09598 4588 ft 243 kts 334°
2026-05-01 13:14 49.89861 8.09138 4356 ft 233 kts 13°
2026-05-01 13:14 49.91229 8.10238 4172 ft 218 kts 52°
2026-05-01 13:14 49.92147 8.12044 4089 ft 213 kts 54°
2026-05-01 13:14 49.93201 8.13676 3966 ft 210 kts 57°
2026-05-01 13:15 49.93741 8.15660 4022 ft 194 kts 81°
2026-05-01 13:15 49.94120 8.17758 4105 ft 206 kts 73°
2026-05-01 13:15 49.94677 8.19812 4083 ft 210 kts 71°
2026-05-01 13:15 49.95190 8.21980 3877 ft 211 kts 74°
2026-05-01 13:16 49.95670 8.24033 3926 ft 201 kts 71°
2026-05-01 13:16 49.96184 8.26070 3912 ft 203 kts 72°
2026-05-01 13:16 49.96687 8.28165 3741 ft 211 kts 73°
2026-05-01 13:17 49.98167 8.34294 2913 ft 186 kts 72°
2026-05-01 13:17 49.98603 8.36134 2650 ft 174 kts 73°
2026-05-01 13:18 49.99432 8.39529 2217 ft 170 kts 71°
2026-05-01 13:18 49.99844 8.41207 1970 ft 158 kts 74°
2026-05-01 13:18 50.00191 8.42754 1773 ft 147 kts 74°
2026-05-01 13:18 50.00549 8.44182 1586 ft 139 kts 70°
2026-05-01 13:19 50.00892 8.45605 1433 ft 144 kts 72°
2026-05-01 13:19 50.01230 8.47054 1202 ft 141 kts 72°
2026-05-01 13:19 50.01900 8.49839 885 ft 135 kts 70°
2026-05-01 13:20 50.02233 8.51217 691 ft 132 kts 70°
2026-05-01 13:20 50.02562 8.52556 481 ft 134 kts 71°
2026-05-01 13:20 50.02884 8.53911 365 ft 138 kts 71°
2026-05-01 13:21 50.03685 8.57434 1298 ft 160 kts 72°
2026-05-01 13:21 50.04086 8.58947 1730 ft 149 kts 69°
2026-05-01 13:21 50.04498 8.60420 2004 ft 149 kts 72°
2026-05-01 13:21 50.04738 8.61952 2112 ft 144 kts 86°
2026-05-01 13:22 50.04769 8.63456 2337 ft 136 kts 94°
2026-05-01 13:22 50.04716 8.64899 2733 ft 126 kts 86°
2026-05-01 13:22 50.04752 8.66329 2914 ft 146 kts 102°
2026-05-01 13:22 50.04427 8.67779 2868 ft 142 kts 125°
2026-05-01 13:23 50.03631 8.68491 3172 ft 130 kts 174°
2026-05-01 13:23 50.02741 8.68505 3643 ft 133 kts 168°
2026-05-01 13:23 50.01793 8.68715 3993 ft 142 kts 169°
2026-05-01 13:23 50.00734 8.68932 4201 ft 171 kts 171°
2026-05-01 13:24 49.99457 8.68783 4378 ft 202 kts 195°
2026-05-01 13:24 49.98232 8.67471 4486 ft 229 kts 224°
2026-05-01 13:24 49.97373 8.65291 4603 ft 241 kts 238°
2026-05-01 13:25 49.95639 8.60716 4360 ft 250 kts 236°
2026-05-01 13:25 49.94769 8.58394 4150 ft 247 kts 237°
2026-05-01 13:25 49.93902 8.56087 3911 ft 249 kts 236°
2026-05-01 13:25 49.93025 8.53790 3856 ft 247 kts 236°
2026-05-01 13:26 49.92139 8.51523 3894 ft 250 kts 236°
2026-05-01 13:26 49.91220 8.49189 3879 ft 252 kts 235°
2026-05-01 13:26 49.90321 8.46902 3924 ft 250 kts 236°
2026-05-01 13:26 49.89428 8.44551 3938 ft 251 kts 236°
2026-05-01 13:27 49.88565 8.42251 3956 ft 246 kts 237°
2026-05-01 13:27 49.87656 8.40000 3976 ft 248 kts 234°
2026-05-01 13:27 49.85921 8.35385 3959 ft 249 kts 244°
2026-05-01 13:28 49.84667 8.30343 3948 ft 253 kts 245°
2026-05-01 13:28 49.84041 8.27824 3985 ft 248 kts 246°
2026-05-01 13:29 49.83684 8.22592 3972 ft 254 kts 287°
2026-05-01 13:29 49.85707 8.18099 3954 ft 258 kts 320°
2026-05-01 13:30 49.92030 8.12862 3743 ft 258 kts 358°
2026-05-01 13:31 49.94738 8.15374 3047 ft 229 kts 73°
2026-05-01 13:31 49.95252 8.22066 2559 ft 201 kts 66°
2026-05-01 13:32 49.96148 8.26037 2481 ft 192 kts 71°
2026-05-01 13:33 49.97181 8.30195 2477 ft 189 kts 75°
2026-05-01 13:33 49.97964 8.33443 2434 ft 178 kts 72°
2026-05-01 13:34 49.98787 8.36918 2395 ft 167 kts 71°
2026-05-01 13:34 49.99565 8.40128 2118 ft 151 kts 73°
2026-05-01 13:35 50.00264 8.43058 1739 ft 140 kts 73°
2026-05-01 13:35 50.00628 8.44513 1577 ft 145 kts 71°
2026-05-01 13:35 50.01318 8.47405 1178 ft 137 kts 73°
2026-05-01 13:36 50.01645 8.48779 988 ft 137 kts 72°
2026-05-01 13:36 50.01984 8.50187 778 ft 141 kts 72°
2026-05-01 13:36 50.02654 8.52972 423 ft 137 kts 72°
2026-05-01 13:37 50.02976 8.54337 335 ft 122 kts 71°
2026-05-01 13:37 50.03228 8.55410 345 ft 90 kts 70°
2026-05-01 13:37 50.03413 8.56142 351 ft 52 kts 58°
2026-05-01 13:37 50.03625 8.56484 352 ft 41 kts 39°
2026-05-01 13:38 50.03885 8.57122 361 ft 32 kts 70°
2026-05-01 13:38 50.03956 8.57416 366 ft 20 kts 68°
2026-05-01 13:38 50.03987 8.57543 366 ft 7 kts 69°
2026-05-01 13:39 50.04012 8.57647 370 ft 15 kts 69°
2026-05-01 13:39 50.04054 8.57823 368 ft 22 kts 69°
2026-05-01 13:39 50.04114 8.58072 370 ft 25 kts 67°
2026-05-01 13:39 50.04176 8.58320 368 ft 24 kts 73°
2026-05-01 13:40 50.04234 8.58575 369 ft 28 kts 68°
2026-05-01 13:40 50.04302 8.58859 372 ft 27 kts 68°
2026-05-01 13:40 50.04364 8.59122 375 ft 25 kts 71°
2026-05-01 13:40 50.04427 8.59377 374 ft 21 kts 70°